| time (UTC) | temp F | wind direction | speed MPH | gust MPH | rain 1hr in | rain 24hr in | rain mn in | humidity % | barometer mb |
| 20260506024404 | 65 | 255 | 3.0 | 6.0 | 0.00 | 0.27 | 0.26 | 38 | 1019.6 |
| 20260506024219 | 65 | 255 | 3.0 | 6.0 | 0.00 | 0.27 | 0.26 | 38 | 1019.6 |
| 20260506023940 | 65 | 251 | 3.0 | 7.0 | 0.00 | 0.27 | 0.26 | 38 | 1019.6 |
| 20260506023719 | 65 | 251 | 3.0 | 7.0 | 0.00 | 0.27 | 0.26 | 38 | 1019.6 |
| 20260506023438 | 66 | 252 | 4.0 | 7.0 | 0.00 | 0.27 | 0.26 | 37 | 1019.2 |
| 20260506023218 | 66 | 252 | 4.0 | 7.0 | 0.00 | 0.27 | 0.26 | 37 | 1019.2 |
| 20260506023003 | 66 | 265 | 5.0 | 10.0 | 0.00 | 0.27 | 0.26 | 37 | 1019.2 |
| 20260506022720 | 66 | 265 | 5.0 | 10.0 | 0.00 | 0.27 | 0.26 | 37 | 1019.2 |
| 20260506022519 | 66 | 265 | 4.0 | 10.0 | 0.00 | 0.27 | 0.26 | 36 | 1018.8 |
| 20260506022253 | 66 | 265 | 4.0 | 10.0 | 0.00 | 0.27 | 0.26 | 36 | 1018.8 |
| 20260506022218 | 66 | 265 | 4.0 | 10.0 | 0.00 | 0.27 | 0.26 | 36 | 1018.8 |
| 20260506021942 | 66 | 253 | 4.0 | 8.0 | 0.00 | 0.27 | 0.26 | 37 | 1019.2 |
| 20260506021718 | 66 | 253 | 4.0 | 8.0 | 0.00 | 0.27 | 0.26 | 37 | 1019.2 |
| 20260506021441 | 66 | 254 | 5.0 | 10.0 | 0.00 | 0.27 | 0.26 | 36 | 1018.5 |
| 20260506021219 | 66 | 254 | 5.0 | 10.0 | 0.00 | 0.27 | 0.26 | 36 | 1018.5 |
| 20260506021038 | 67 | 254 | 5.0 | 10.0 | 0.00 | 0.27 | 0.26 | 35 | 1018.8 |
| 20260506020718 | 67 | 254 | 5.0 | 10.0 | 0.00 | 0.27 | 0.26 | 35 | 1018.8 |
| 20260506020506 | 67 | 254 | 5.0 | 11.0 | 0.00 | 0.27 | 0.26 | 36 | 1018.5 |
| 20260506020220 | 67 | 254 | 5.0 | 11.0 | 0.00 | 0.27 | 0.26 | 36 | 1018.5 |
| 20260506015943 | 67 | 260 | 6.0 | 12.0 | 0.00 | 0.27 | 0.26 | 35 | 1018.8 |
| 20260506015753 | 67 | 260 | 6.0 | 12.0 | 0.00 | 0.27 | 0.26 | 35 | 1018.8 |
| 20260506015718 | 67 | 260 | 6.0 | 12.0 | 0.00 | 0.27 | 0.26 | 35 | 1018.8 |
| 20260506015611 | 68 | 258 | 7.0 | 15.0 | 0.00 | 0.27 | 0.26 | 35 | 1018.5 |
| 20260506015218 | 68 | 258 | 7.0 | 15.0 | 0.00 | 0.27 | 0.26 | 35 | 1018.5 |
| 20260506015055 | 68 | 257 | 6.0 | 15.0 | 0.00 | 0.27 | 0.26 | 35 | 1018.5 |
| 20260506014718 | 68 | 257 | 6.0 | 15.0 | 0.00 | 0.27 | 0.26 | 35 | 1018.5 |
| 20260506014427 | 68 | 255 | 6.0 | 15.0 | 0.00 | 0.27 | 0.26 | 35 | 1018.5 |
| 20260506014224 | 68 | 255 | 6.0 | 15.0 | 0.00 | 0.27 | 0.26 | 35 | 1018.5 |
| 20260506014133 | 68 | 265 | 7.0 | 15.0 | 0.00 | 0.27 | 0.26 | 35 | 1018.5 |
| 20260506013720 | 68 | 265 | 7.0 | 15.0 | 0.00 | 0.27 | 0.26 | 35 | 1018.5 |
| 20260506013439 | 69 | 285 | 8.0 | 12.0 | 0.00 | 0.27 | 0.26 | 34 | 1018.5 |
| 20260506013219 | 69 | 285 | 8.0 | 12.0 | 0.00 | 0.27 | 0.26 | 34 | 1018.5 |
| 20260506013010 | 70 | 250 | 9.0 | 15.0 | 0.00 | 0.27 | 0.26 | 33 | 1018.5 |
| 20260506012719 | 70 | 250 | 9.0 | 15.0 | 0.00 | 0.27 | 0.26 | 33 | 1018.5 |
| 20260506012519 | 70 | 206 | 10.0 | 15.0 | 0.00 | 0.27 | 0.26 | 33 | 1018.1 |
| 20260506012218 | 70 | 206 | 10.0 | 15.0 | 0.00 | 0.27 | 0.26 | 33 | 1018.1 |
| 20260506011947 | 71 | 227 | 8.0 | 15.0 | 0.00 | 0.27 | 0.26 | 31 | 1017.7 |
| 20260506011719 | 71 | 227 | 8.0 | 15.0 | 0.00 | 0.27 | 0.26 | 31 | 1017.7 |
| 20260506011510 | 71 | 253 | 6.0 | 15.0 | 0.00 | 0.27 | 0.26 | 31 | 1017.7 |
| 20260506011218 | 71 | 253 | 6.0 | 15.0 | 0.00 | 0.27 | 0.26 | 31 | 1017.7 |
| 20260506011015 | 71 | 267 | 6.0 | 15.0 | 0.00 | 0.27 | 0.26 | 32 | 1018.1 |
| 20260506010718 | 71 | 267 | 6.0 | 15.0 | 0.00 | 0.27 | 0.26 | 32 | 1018.1 |
| 20260506010444 | 70 | 262 | 7.0 | 15.0 | 0.00 | 0.27 | 0.26 | 33 | 1018.1 |
| 20260506010218 | 70 | 262 | 7.0 | 15.0 | 0.00 | 0.27 | 0.26 | 33 | 1018.1 |
| 20260506005901 | 70 | 256 | 8.0 | 17.0 | 0.00 | 0.27 | 0.26 | 31 | 1018.1 |
| 20260506005719 | 70 | 256 | 8.0 | 17.0 | 0.00 | 0.27 | 0.26 | 31 | 1018.1 |
| 20260506005502 | 72 | 253 | 8.0 | 17.0 | 0.00 | 0.27 | 0.26 | 30 | 1017.7 |
| 20260506005218 | 72 | 253 | 8.0 | 17.0 | 0.00 | 0.27 | 0.26 | 30 | 1017.7 |
| 20260506004944 | 73 | 252 | 8.0 | 18.0 | 0.00 | 0.27 | 0.26 | 29 | 1017.7 |
| 20260506004719 | 73 | 252 | 8.0 | 18.0 | 0.00 | 0.27 | 0.26 | 29 | 1017.7 |
| 20260506004438 | 72 | 255 | 8.0 | 18.0 | 0.00 | 0.27 | 0.26 | 29 | 1017.7 |
| 20260506004222 | 72 | 255 | 8.0 | 18.0 | 0.00 | 0.27 | 0.26 | 29 | 1017.7 |
| 20260506004000 | 72 | 252 | 8.0 | 19.0 | 0.01 | 0.27 | 0.26 | 29 | 1017.7 |
| 20260506003718 | 72 | 252 | 8.0 | 19.0 | 0.01 | 0.27 | 0.26 | 29 | 1017.7 |
| 20260506003438 | 72 | 255 | 9.0 | 19.0 | 0.01 | 0.27 | 0.26 | 28 | 1017.7 |
| 20260506003218 | 72 | 255 | 9.0 | 19.0 | 0.01 | 0.27 | 0.26 | 28 | 1017.7 |
| 20260506002921 | 73 | 258 | 8.0 | 19.0 | 0.01 | 0.27 | 0.26 | 28 | 1017.7 |
| 20260506002718 | 73 | 258 | 8.0 | 19.0 | 0.01 | 0.27 | 0.26 | 28 | 1017.7 |
| 20260506002512 | 74 | 261 | 8.0 | 23.0 | 0.01 | 0.27 | 0.26 | 27 | 1017.7 |
| 20260506002218 | 74 | 261 | 8.0 | 23.0 | 0.01 | 0.27 | 0.26 | 27 | 1017.7 |
| 20260506001923 | 73 | 257 | 9.0 | 23.0 | 0.01 | 0.27 | 0.26 | 26 | 1017.7 |
| 20260506001718 | 73 | 257 | 9.0 | 23.0 | 0.01 | 0.27 | 0.26 | 26 | 1017.7 |
| 20260506001507 | 73 | 246 | 9.0 | 17.0 | 0.01 | 0.27 | 0.26 | 26 | 1018.1 |
| 20260506001218 | 73 | 246 | 9.0 | 17.0 | 0.01 | 0.27 | 0.26 | 26 | 1018.1 |
| 20260506001003 | 74 | 252 | 8.0 | 17.0 | 0.01 | 0.27 | 0.26 | 25 | 1017.7 |
| 20260506000718 | 74 | 252 | 8.0 | 17.0 | 0.01 | 0.27 | 0.26 | 25 | 1017.7 |
| 20260506000413 | 74 | 275 | 9.0 | 17.0 | 0.01 | 0.27 | 0.26 | 25 | 1017.7 |
| 20260506000219 | 74 | 275 | 9.0 | 17.0 | 0.01 | 0.27 | 0.26 | 25 | 1017.7 |
| 20260505235956 | 74 | 274 | 10.0 | 19.0 | 0.01 | 0.27 | 0.26 | 25 | 1017.3 |
| 20260505235719 | 74 | 274 | 10.0 | 19.0 | 0.01 | 0.27 | 0.26 | 25 | 1017.3 |
| 20260505235549 | 74 | 264 | 9.0 | 19.0 | 0.01 | 0.27 | 0.26 | 25 | 1017.7 |
| 20260505235218 | 74 | 264 | 9.0 | 19.0 | 0.01 | 0.27 | 0.26 | 25 | 1017.7 |
| 20260505234927 | 75 | 260 | 9.0 | 22.0 | 0.01 | 0.27 | 0.26 | 22 | 1017.7 |
| 20260505234718 | 75 | 260 | 9.0 | 22.0 | 0.01 | 0.27 | 0.26 | 22 | 1017.7 |
| 20260505234507 | 74 | 250 | 10.0 | 22.0 | 0.01 | 0.27 | 0.26 | 22 | 1017.7 |
| 20260505234220 | 74 | 250 | 10.0 | 22.0 | 0.01 | 0.27 | 0.26 | 22 | 1017.7 |
| 20260505233956 | 74 | 249 | 10.0 | 18.0 | 0.00 | 0.26 | 0.25 | 25 | 1017.3 |
| 20260505233720 | 74 | 249 | 10.0 | 18.0 | 0.00 | 0.26 | 0.25 | 25 | 1017.3 |
| 20260505233441 | 74 | 263 | 11.0 | 19.0 | 0.00 | 0.26 | 0.25 | 24 | 1017.3 |
| 20260505233219 | 74 | 263 | 11.0 | 19.0 | 0.00 | 0.26 | 0.25 | 24 | 1017.3 |
| 20260505233035 | 74 | 262 | 11.0 | 24.0 | 0.00 | 0.26 | 0.25 | 23 | 1017.7 |
| 20260505232718 | 74 | 262 | 11.0 | 24.0 | 0.00 | 0.26 | 0.25 | 23 | 1017.7 |
| 20260505232551 | 74 | 257 | 10.0 | 24.0 | 0.00 | 0.26 | 0.25 | 23 | 1017.3 |
| 20260505232219 | 74 | 257 | 10.0 | 24.0 | 0.00 | 0.26 | 0.25 | 23 | 1017.3 |
| 20260505232018 | 75 | 254 | 9.0 | 17.0 | 0.00 | 0.26 | 0.25 | 24 | 1017.7 |
| 20260505231720 | 75 | 254 | 9.0 | 17.0 | 0.00 | 0.26 | 0.25 | 24 | 1017.7 |
| 20260505231458 | 75 | 250 | 10.0 | 20.0 | 0.00 | 0.26 | 0.25 | 25 | 1017.3 |
| 20260505231218 | 75 | 250 | 10.0 | 20.0 | 0.00 | 0.26 | 0.25 | 25 | 1017.3 |
| 20260505230933 | 75 | 256 | 10.0 | 20.0 | 0.00 | 0.26 | 0.25 | 26 | 1017.3 |
| 20260505230719 | 75 | 256 | 10.0 | 20.0 | 0.00 | 0.26 | 0.25 | 26 | 1017.3 |
| 20260505230438 | 75 | 256 | 10.0 | 18.0 | 0.00 | 0.26 | 0.25 | 27 | 1017.3 |
| 20260505230220 | 75 | 256 | 10.0 | 18.0 | 0.00 | 0.26 | 0.25 | 27 | 1017.3 |
| 20260505230009 | 75 | 251 | 9.0 | 18.0 | 0.00 | 0.26 | 0.25 | 25 | 1017.3 |
| 20260505225718 | 75 | 251 | 9.0 | 18.0 | 0.00 | 0.26 | 0.25 | 25 | 1017.3 |
| 20260505225339 | 74 | 256 | 10.0 | 16.0 | 0.00 | 0.26 | 0.25 | 28 | 1017.3 |
| 20260505225218 | 74 | 256 | 10.0 | 16.0 | 0.00 | 0.26 | 0.25 | 28 | 1017.3 |
| 20260505224933 | 75 | 262 | 9.0 | 19.0 | 0.00 | 0.26 | 0.25 | 29 | 1017.7 |
| 20260505224718 | 75 | 262 | 9.0 | 19.0 | 0.00 | 0.26 | 0.25 | 29 | 1017.7 |
| 20260505224500 | 75 | 259 | 10.0 | 19.0 | 0.00 | 0.26 | 0.25 | 29 | 1017.7 |
| 20260505224218 | 75 | 259 | 10.0 | 19.0 | 0.00 | 0.26 | 0.25 | 29 | 1017.7 |
| 20260505223902 | 75 | 257 | 10.0 | 17.0 | 0.00 | 0.26 | 0.25 | 30 | 1017.7 |
| 20260505223719 | 75 | 257 | 10.0 | 17.0 | 0.00 | 0.26 | 0.25 | 30 | 1017.7 |
| 20260505223218 | 76 | 258 | 9.0 | 15.0 | 0.00 | 0.26 | 0.25 | 30 | 1017.7 |
| 20260505223013 | 76 | 265 | 8.0 | 19.0 | 0.00 | 0.26 | 0.25 | 31 | 1017.3 |
| 20260505222718 | 76 | 265 | 8.0 | 19.0 | 0.00 | 0.26 | 0.25 | 31 | 1017.3 |
| 20260505222409 | 76 | 293 | 8.0 | 19.0 | 0.00 | 0.26 | 0.25 | 30 | 1017.7 |
| 20260505222219 | 76 | 293 | 8.0 | 19.0 | 0.00 | 0.26 | 0.25 | 30 | 1017.7 |
| 20260505222000 | 75 | 299 | 8.0 | 15.0 | 0.00 | 0.26 | 0.25 | 30 | 1017.7 |
| 20260505221718 | 75 | 299 | 8.0 | 15.0 | 0.00 | 0.26 | 0.25 | 30 | 1017.7 |
| 20260505221416 | 75 | 258 | 9.0 | 17.0 | 0.00 | 0.26 | 0.25 | 30 | 1017.7 |
| 20260505221218 | 75 | 258 | 9.0 | 17.0 | 0.00 | 0.26 | 0.25 | 30 | 1017.7 |
| 20260505220915 | 74 | 244 | 9.0 | 22.0 | 0.00 | 0.26 | 0.25 | 30 | 1017.7 |
| 20260505220719 | 74 | 244 | 9.0 | 22.0 | 0.00 | 0.26 | 0.25 | 30 | 1017.7 |
| 20260505220324 | 75 | 241 | 9.0 | 22.0 | 0.00 | 0.26 | 0.25 | 29 | 1018.1 |
| 20260505220218 | 75 | 241 | 9.0 | 22.0 | 0.00 | 0.26 | 0.25 | 29 | 1018.1 |
| 20260505215721 | 74 | 226 | 7.0 | 19.0 | 0.00 | 0.26 | 0.25 | 31 | 1017.7 |
| 20260505215218 | 76 | 231 | 6.0 | 11.0 | 0.00 | 0.26 | 0.25 | 32 | 1017.7 |
| 20260505214718 | 76 | 249 | 8.0 | 18.0 | 0.00 | 0.26 | 0.25 | 32 | 1017.7 |
| 20260505214325 | 76 | 251 | 10.0 | 19.0 | 0.00 | 0.26 | 0.25 | 30 | 1018.1 |
| 20260505214219 | 76 | 251 | 10.0 | 19.0 | 0.00 | 0.26 | 0.25 | 30 | 1018.1 |
| 20260505213823 | 76 | 238 | 12.0 | 23.0 | 0.00 | 0.26 | 0.25 | 31 | 1018.1 |
| 20260505213718 | 76 | 238 | 12.0 | 23.0 | 0.00 | 0.26 | 0.25 | 31 | 1018.1 |
| 20260505213219 | 76 | 249 | 12.0 | 23.0 | 0.00 | 0.26 | 0.25 | 31 | 1018.1 |
| 20260505212718 | 76 | 256 | 11.0 | 23.0 | 0.00 | 0.26 | 0.25 | 31 | 1017.7 |
| 20260505212219 | 75 | 234 | 10.0 | 19.0 | 0.15 | 0.26 | 0.25 | 32 | 1018.1 |
| 20260505211721 | 77 | 219 | 8.0 | 19.0 | 0.15 | 0.26 | 0.25 | 30 | 1018.5 |
| 20260505211218 | 75 | 128 | 7.0 | 10.0 | 0.15 | 0.26 | 0.25 | 31 | 1018.5 |
| 20260505210718 | 76 | 100 | 8.0 | 15.0 | 0.15 | 0.26 | 0.25 | 32 | 1018.5 |
| 20260505210220 | 76 | 230 | 10.0 | 19.0 | 0.15 | 0.26 | 0.25 | 32 | 1018.5 |
| 20260505205807 | 76 | 213 | 9.0 | 19.0 | 0.15 | 0.26 | 0.25 | 31 | 1018.5 |
| 20260505205719 | 76 | 213 | 9.0 | 19.0 | 0.15 | 0.26 | 0.25 | 31 | 1018.5 |
| 20260505205313 | 76 | 214 | 10.0 | 19.0 | 0.15 | 0.26 | 0.25 | 31 | 1018.1 |
| 20260505205219 | 76 | 214 | 10.0 | 19.0 | 0.15 | 0.26 | 0.25 | 31 | 1018.1 |
| 20260505204824 | 76 | 239 | 11.0 | 23.0 | 0.15 | 0.26 | 0.25 | 31 | 1018.5 |
| 20260505204720 | 76 | 239 | 11.0 | 23.0 | 0.15 | 0.26 | 0.25 | 31 | 1018.5 |
| 20260505204220 | 75 | 240 | 10.0 | 23.0 | 0.15 | 0.26 | 0.25 | 31 | 1018.5 |
| 20260505203817 | 74 | 238 | 8.0 | 19.0 | 0.15 | 0.26 | 0.25 | 35 | 1018.5 |
| 20260505203720 | 74 | 238 | 8.0 | 19.0 | 0.15 | 0.26 | 0.25 | 35 | 1018.5 |
| 20260505203316 | 75 | 244 | 10.0 | 19.0 | 0.15 | 0.26 | 0.25 | 33 | 1018.5 |
| 20260505203219 | 75 | 244 | 10.0 | 19.0 | 0.15 | 0.26 | 0.25 | 33 | 1018.5 |
| 20260505202934 | 75 | 246 | 10.0 | 16.0 | 0.15 | 0.26 | 0.25 | 35 | 1018.5 |
| 20260505202722 | 75 | 246 | 10.0 | 16.0 | 0.15 | 0.26 | 0.25 | 35 | 1018.5 |
| 20260505202343 | 75 | 236 | 10.0 | 24.0 | 0.00 | 0.11 | 0.10 | 35 | 1018.5 |
| 20260505202220 | 75 | 236 | 10.0 | 24.0 | 0.00 | 0.11 | 0.10 | 35 | 1018.5 |
| 20260505202000 | 74 | 235 | 10.0 | 24.0 | 0.00 | 0.11 | 0.10 | 37 | 1018.5 |
| 20260505201720 | 74 | 235 | 10.0 | 24.0 | 0.00 | 0.11 | 0.10 | 37 | 1018.5 |
| 20260505201319 | 74 | 236 | 10.0 | 23.0 | 0.00 | 0.11 | 0.10 | 37 | 1018.5 |
| 20260505201219 | 74 | 236 | 10.0 | 23.0 | 0.00 | 0.11 | 0.10 | 37 | 1018.5 |
| 20260505200907 | 74 | 234 | 8.0 | 18.0 | 0.00 | 0.11 | 0.10 | 35 | 1018.8 |
| 20260505200719 | 74 | 234 | 8.0 | 18.0 | 0.00 | 0.11 | 0.10 | 35 | 1018.8 |
| 20260505200424 | 75 | 238 | 6.0 | 12.0 | 0.00 | 0.11 | 0.10 | 37 | 1019.2 |
| 20260505200219 | 75 | 238 | 6.0 | 12.0 | 0.00 | 0.11 | 0.10 | 37 | 1019.2 |
| 20260505195933 | 75 | 221 | 7.0 | 11.0 | 0.00 | 0.11 | 0.10 | 38 | 1018.8 |
| 20260505195719 | 75 | 221 | 7.0 | 11.0 | 0.00 | 0.11 | 0.10 | 38 | 1018.8 |
| 20260505195525 | 75 | 201 | 7.0 | 11.0 | 0.00 | 0.11 | 0.10 | 38 | 1018.8 |
| 20260505195219 | 75 | 201 | 7.0 | 11.0 | 0.00 | 0.11 | 0.10 | 38 | 1018.8 |
| 20260505195056 | 75 | 228 | 9.0 | 16.0 | 0.00 | 0.11 | 0.10 | 36 | 1018.8 |
| 20260505194719 | 75 | 228 | 9.0 | 16.0 | 0.00 | 0.11 | 0.10 | 36 | 1018.8 |
| 20260505194433 | 74 | 255 | 11.0 | 16.0 | 0.00 | 0.11 | 0.10 | 37 | 1018.8 |
| 20260505194219 | 74 | 255 | 11.0 | 16.0 | 0.00 | 0.11 | 0.10 | 37 | 1018.8 |
| 20260505194016 | 74 | 242 | 10.0 | 16.0 | 0.00 | 0.11 | 0.10 | 37 | 1018.8 |
| 20260505193719 | 74 | 242 | 10.0 | 16.0 | 0.00 | 0.11 | 0.10 | 37 | 1018.8 |
| 20260505193439 | 74 | 225 | 10.0 | 15.0 | 0.00 | 0.11 | 0.10 | 38 | 1018.5 |
| 20260505193219 | 74 | 225 | 10.0 | 15.0 | 0.00 | 0.11 | 0.10 | 38 | 1018.5 |
| 20260505193025 | 74 | 221 | 10.0 | 12.0 | 0.00 | 0.11 | 0.10 | 38 | 1018.8 |
| 20260505192720 | 74 | 221 | 10.0 | 12.0 | 0.00 | 0.11 | 0.10 | 38 | 1018.8 |
| 20260505192503 | 74 | 201 | 10.0 | 15.0 | 0.00 | 0.11 | 0.10 | 38 | 1018.5 |
| 20260505192219 | 74 | 201 | 10.0 | 15.0 | 0.00 | 0.11 | 0.10 | 38 | 1018.5 |
| 20260505192046 | 73 | 218 | 11.0 | 21.0 | 0.00 | 0.11 | 0.10 | 39 | 1019.2 |
| 20260505191720 | 73 | 218 | 11.0 | 21.0 | 0.00 | 0.11 | 0.10 | 39 | 1019.2 |
| 20260505191448 | 73 | 243 | 10.0 | 21.0 | 0.00 | 0.11 | 0.10 | 38 | 1018.8 |
| 20260505191220 | 73 | 243 | 10.0 | 21.0 | 0.00 | 0.11 | 0.10 | 38 | 1018.8 |
| 20260505191017 | 73 | 242 | 9.0 | 20.0 | 0.00 | 0.11 | 0.10 | 39 | 1019.2 |
| 20260505190719 | 73 | 242 | 9.0 | 20.0 | 0.00 | 0.11 | 0.10 | 39 | 1019.2 |
| 20260505190455 | 73 | 240 | 8.0 | 20.0 | 0.00 | 0.11 | 0.10 | 41 | 1019.2 |
| 20260505190219 | 73 | 240 | 8.0 | 20.0 | 0.00 | 0.11 | 0.10 | 41 | 1019.2 |
| 20260505190009 | 74 | 224 | 9.0 | 19.0 | 0.00 | 0.11 | 0.10 | 41 | 1019.2 |
| 20260505185720 | 74 | 224 | 9.0 | 19.0 | 0.00 | 0.11 | 0.10 | 41 | 1019.2 |
| 20260505185616 | 73 | 232 | 10.0 | 24.0 | 0.00 | 0.11 | 0.10 | 42 | 1019.6 |
| 20260505185220 | 73 | 232 | 10.0 | 24.0 | 0.00 | 0.11 | 0.10 | 42 | 1019.6 |
| 20260505185035 | 72 | 247 | 9.0 | 24.0 | 0.00 | 0.11 | 0.10 | 42 | 1019.2 |
| 20260505184719 | 72 | 247 | 9.0 | 24.0 | 0.00 | 0.11 | 0.10 | 42 | 1019.2 |
| 20260505184517 | 73 | 243 | 7.0 | 17.0 | 0.00 | 0.11 | 0.10 | 45 | 1019.6 |
| 20260505184220 | 73 | 243 | 7.0 | 17.0 | 0.00 | 0.11 | 0.10 | 45 | 1019.6 |
| 20260505183952 | 71 | 246 | 7.0 | 17.0 | 0.00 | 0.11 | 0.10 | 46 | 1019.6 |
| 20260505183720 | 71 | 246 | 7.0 | 17.0 | 0.00 | 0.11 | 0.10 | 46 | 1019.6 |
| 20260505183436 | 71 | 257 | 7.0 | 12.0 | 0.00 | 0.11 | 0.10 | 46 | 1019.6 |
| 20260505183219 | 71 | 257 | 7.0 | 12.0 | 0.00 | 0.11 | 0.10 | 46 | 1019.6 |
| 20260505183006 | 70 | 263 | 8.0 | 15.0 | 0.00 | 0.11 | 0.10 | 47 | 1019.6 |
| 20260505182719 | 70 | 263 | 8.0 | 15.0 | 0.00 | 0.11 | 0.10 | 47 | 1019.6 |
| 20260505182510 | 70 | 256 | 7.0 | 15.0 | 0.00 | 0.11 | 0.10 | 48 | 1019.6 |
| 20260505182219 | 70 | 256 | 7.0 | 15.0 | 0.00 | 0.11 | 0.10 | 48 | 1019.6 |
| 20260505181918 | 70 | 242 | 6.0 | 14.0 | 0.00 | 0.11 | 0.10 | 47 | 1019.6 |
| 20260505181719 | 70 | 242 | 6.0 | 14.0 | 0.00 | 0.11 | 0.10 | 47 | 1019.6 |
| 20260505181458 | 70 | 264 | 5.0 | 12.0 | 0.00 | 0.11 | 0.10 | 47 | 1019.6 |
| 20260505181219 | 70 | 264 | 5.0 | 12.0 | 0.00 | 0.11 | 0.10 | 47 | 1019.6 |
| 20260505180719 | 70 | 286 | 4.0 | 9.0 | 0.00 | 0.11 | 0.10 | 55 | 1020.0 |
| 20260505180434 | 70 | 284 | 5.0 | 11.0 | 0.00 | 0.11 | 0.10 | 51 | 1019.6 |
| 20260505180219 | 70 | 284 | 5.0 | 11.0 | 0.00 | 0.11 | 0.10 | 51 | 1019.6 |
| 20260505175933 | 68 | 285 | 5.0 | 11.0 | 0.00 | 0.11 | 0.10 | 54 | 1019.6 |
| 20260505175719 | 68 | 285 | 5.0 | 11.0 | 0.00 | 0.11 | 0.10 | 54 | 1019.6 |
| 20260505175629 | 68 | 289 | 6.0 | 9.0 | 0.00 | 0.11 | 0.10 | 53 | 1019.6 |
| 20260505175553 | 68 | 289 | 6.0 | 9.0 | 0.00 | 0.11 | 0.10 | 53 | 1019.6 |
| 20260505175219 | 68 | 289 | 6.0 | 9.0 | 0.00 | 0.11 | 0.10 | 53 | 1019.6 |
| 20260505175016 | 68 | 274 | 6.0 | 9.0 | 0.00 | 0.11 | 0.10 | 54 | 1020.0 |
| 20260505174719 | 68 | 274 | 6.0 | 9.0 | 0.00 | 0.11 | 0.10 | 54 | 1020.0 |
| 20260505174523 | 69 | 249 | 5.0 | 9.0 | 0.00 | 0.11 | 0.10 | 55 | 1020.0 |
| 20260505174219 | 69 | 249 | 5.0 | 9.0 | 0.00 | 0.11 | 0.10 | 55 | 1020.0 |
| 20260505174035 | 69 | 283 | 4.0 | 8.0 | 0.00 | 0.11 | 0.10 | 55 | 1020.0 |
| 20260505173720 | 69 | 283 | 4.0 | 8.0 | 0.00 | 0.11 | 0.10 | 55 | 1020.0 |
| 20260505173439 | 68 | 269 | 4.0 | 8.0 | 0.01 | 0.11 | 0.10 | 54 | 1019.6 |
| 20260505173220 | 68 | 269 | 4.0 | 8.0 | 0.01 | 0.11 | 0.10 | 54 | 1019.6 |
| 20260505172933 | 68 | 270 | 4.0 | 8.0 | 0.01 | 0.11 | 0.10 | 55 | 1019.6 |
| 20260505172719 | 68 | 270 | 4.0 | 8.0 | 0.01 | 0.11 | 0.10 | 55 | 1019.6 |
| 20260505172551 | 69 | 274 | 4.0 | 8.0 | 0.01 | 0.11 | 0.10 | 57 | 1020.0 |
| 20260505172220 | 69 | 274 | 4.0 | 8.0 | 0.01 | 0.11 | 0.10 | 57 | 1020.0 |
| 20260505171934 | 69 | 248 | 3.0 | 6.0 | 0.01 | 0.11 | 0.10 | 59 | 1020.0 |
| 20260505171719 | 69 | 248 | 3.0 | 6.0 | 0.01 | 0.11 | 0.10 | 59 | 1020.0 |
| 20260505171219 | 67 | 276 | 3.0 | 7.0 | 0.01 | 0.11 | 0.10 | 58 | 1020.0 |
| 20260505170950 | 68 | 313 | 2.0 | 7.0 | 0.01 | 0.11 | 0.10 | 58 | 1020.0 |
| 20260505170719 | 68 | 313 | 2.0 | 7.0 | 0.01 | 0.11 | 0.10 | 58 | 1020.0 |
| 20260505170435 | 68 | 343 | 1.0 | 4.0 | 0.01 | 0.11 | 0.10 | 59 | 1020.0 |
| 20260505170218 | 68 | 343 | 1.0 | 4.0 | 0.01 | 0.11 | 0.10 | 59 | 1020.0 |
| 20260505165956 | 68 | 308 | 2.0 | 6.0 | 0.01 | 0.11 | 0.10 | 58 | 1020.0 |
| 20260505165720 | 68 | 308 | 2.0 | 6.0 | 0.01 | 0.11 | 0.10 | 58 | 1020.0 |
| 20260505165220 | 68 | 295 | 3.0 | 8.0 | 0.01 | 0.11 | 0.10 | 63 | 1020.3 |
| 20260505164941 | 66 | 289 | 3.0 | 8.0 | 0.01 | 0.11 | 0.10 | 62 | 1020.0 |
| 20260505164718 | 66 | 289 | 3.0 | 8.0 | 0.01 | 0.11 | 0.10 | 62 | 1020.0 |
| 20260505164442 | 67 | 244 | 3.0 | 6.0 | 0.01 | 0.11 | 0.10 | 64 | 1020.0 |
| 20260505164221 | 67 | 244 | 3.0 | 6.0 | 0.01 | 0.11 | 0.10 | 64 | 1020.0 |
| 20260505164033 | 67 | 234 | 3.0 | 6.0 | 0.01 | 0.11 | 0.10 | 64 | 1020.3 |
| 20260505163718 | 67 | 234 | 3.0 | 6.0 | 0.01 | 0.11 | 0.10 | 64 | 1020.3 |
| 20260505163431 | 67 | 243 | 3.0 | 6.0 | 0.00 | 0.10 | 0.09 | 61 | 1020.3 |
| 20260505163219 | 67 | 243 | 3.0 | 6.0 | 0.00 | 0.10 | 0.09 | 61 | 1020.3 |
| 20260505162931 | 67 | 229 | 2.0 | 5.0 | 0.00 | 0.10 | 0.09 | 62 | 1020.3 |
| 20260505162719 | 67 | 229 | 2.0 | 5.0 | 0.00 | 0.10 | 0.09 | 62 | 1020.3 |
| 20260505162533 | 66 | 231 | 2.0 | 5.0 | 0.00 | 0.10 | 0.09 | 62 | 1020.3 |
| 20260505162220 | 66 | 231 | 2.0 | 5.0 | 0.00 | 0.10 | 0.09 | 62 | 1020.3 |
| 20260505162150 | 66 | 210 | 2.0 | 6.0 | 0.00 | 0.10 | 0.09 | 62 | 1020.0 |
| 20260505161719 | 66 | 210 | 2.0 | 6.0 | 0.00 | 0.10 | 0.09 | 62 | 1020.0 |
| 20260505161637 | 66 | 216 | 2.0 | 6.0 | 0.00 | 0.10 | 0.09 | 66 | 1020.0 |
| 20260505161220 | 66 | 216 | 2.0 | 6.0 | 0.00 | 0.10 | 0.09 | 66 | 1020.0 |
| 20260505161025 | 66 | 210 | 2.0 | 4.0 | 0.00 | 0.10 | 0.09 | 63 | 1020.3 |
| 20260505160719 | 66 | 210 | 2.0 | 4.0 | 0.00 | 0.10 | 0.09 | 63 | 1020.3 |
| 20260505160531 | 66 | 223 | 1.0 | 4.0 | 0.00 | 0.10 | 0.09 | 66 | 1020.0 |
| 20260505160219 | 66 | 223 | 1.0 | 4.0 | 0.00 | 0.10 | 0.09 | 66 | 1020.0 |
| 20260505153219 | 62 | 295 | 1.0 | 4.0 | 0.00 | 0.10 | 0.09 | 76 | 1020.3 |
| 20260505153025 | 62 | 288 | 1.0 | 4.0 | 0.00 | 0.10 | 0.09 | 75 | 1020.3 |
| 20260505152720 | 62 | 288 | 1.0 | 4.0 | 0.00 | 0.10 | 0.09 | 75 | 1020.3 |
| 20260505152529 | 62 | 284 | 1.0 | 4.0 | 0.00 | 0.10 | 0.09 | 75 | 1020.0 |
| 20260505152219 | 62 | 284 | 1.0 | 4.0 | 0.00 | 0.10 | 0.09 | 75 | 1020.0 |
| 20260505152025 | 63 | 355 | 1.0 | 3.0 | 0.00 | 0.10 | 0.09 | 74 | 1020.0 |
| 20260505151718 | 63 | 355 | 1.0 | 3.0 | 0.00 | 0.10 | 0.09 | 74 | 1020.0 |
| 20260505151409 | 63 | 50 | 0.0 | 2.0 | 0.00 | 0.10 | 0.09 | 80 | 1020.0 |
| 20260505151218 | 63 | 50 | 0.0 | 2.0 | 0.00 | 0.10 | 0.09 | 80 | 1020.0 |
| 20260505150719 | 62 | 28 | 0.0 | 2.0 | 0.00 | 0.10 | 0.09 | 82 | 1020.3 |
| 20260505150603 | 60 | 9 | 0.0 | 1.0 | 0.00 | 0.10 | 0.09 | 83 | 1020.3 |
| 20260505150218 | 60 | 9 | 0.0 | 1.0 | 0.00 | 0.10 | 0.09 | 83 | 1020.3 |
| 20260505140441 | 57 | 114 | 0.0 | 2.0 | 0.00 | 0.10 | 0.09 | 94 | 1019.6 |
| 20260505140219 | 57 | 114 | 0.0 | 2.0 | 0.00 | 0.10 | 0.09 | 94 | 1019.6 |
| 20260505130218 | 56 | 53 | 0.0 | 1.0 | 0.00 | 0.10 | 0.09 | 95 | 1019.2 |
| 20260505130115 | 56 | 357 | 0.0 | 2.0 | 0.00 | 0.10 | 0.09 | 95 | 1018.8 |
| 20260505124720 | 56 | 342 | 0.0 | 3.0 | 0.00 | 0.10 | 0.09 | 95 | 1018.5 |
| 20260505124444 | 56 | 339 | 1.0 | 4.0 | 0.00 | 0.10 | 0.09 | 95 | 1018.8 |
| 20260505124223 | 56 | 339 | 1.0 | 4.0 | 0.00 | 0.10 | 0.09 | 95 | 1018.8 |
| 20260505123953 | 56 | 333 | 1.0 | 4.0 | 0.00 | 0.10 | 0.09 | 95 | 1018.5 |
| 20260505123718 | 56 | 333 | 1.0 | 4.0 | 0.00 | 0.10 | 0.09 | 95 | 1018.5 |
| 20260505123439 | 57 | 333 | 1.0 | 3.0 | 0.00 | 0.10 | 0.09 | 95 | 1018.8 |
| 20260505123219 | 57 | 333 | 1.0 | 3.0 | 0.00 | 0.10 | 0.09 | 95 | 1018.8 |
| 20260505123025 | 57 | 349 | 0.0 | 2.0 | 0.00 | 0.10 | 0.09 | 95 | 1018.8 |
| 20260505122719 | 57 | 349 | 0.0 | 2.0 | 0.00 | 0.10 | 0.09 | 95 | 1018.8 |
| 20260505122505 | 57 | 355 | 0.0 | 2.0 | 0.00 | 0.10 | 0.09 | 95 | 1018.8 |
| 20260505122219 | 57 | 355 | 0.0 | 2.0 | 0.00 | 0.10 | 0.09 | 95 | 1018.8 |
| 20260505122139 | 57 | 338 | 1.0 | 4.0 | 0.00 | 0.10 | 0.09 | 95 | 1018.8 |
| 20260505121719 | 57 | 338 | 1.0 | 4.0 | 0.00 | 0.10 | 0.09 | 95 | 1018.8 |
| 20260505121543 | 57 | 297 | 2.0 | 4.0 | 0.00 | 0.10 | 0.09 | 95 | 1018.8 |
| 20260505121218 | 57 | 297 | 2.0 | 4.0 | 0.00 | 0.10 | 0.09 | 95 | 1018.8 |
| 20260505121119 | 57 | 269 | 2.0 | 4.0 | 0.00 | 0.10 | 0.09 | 95 | 1018.8 |
| 20260505120718 | 57 | 269 | 2.0 | 4.0 | 0.00 | 0.10 | 0.09 | 95 | 1018.8 |
| 20260505120436 | 57 | 277 | 2.0 | 4.0 | 0.00 | 0.10 | 0.09 | 95 | 1018.8 |
| 20260505120218 | 57 | 277 | 2.0 | 4.0 | 0.00 | 0.10 | 0.09 | 95 | 1018.8 |
| 20260505120010 | 57 | 288 | 1.0 | 3.0 | 0.00 | 0.10 | 0.09 | 95 | 1018.5 |
| 20260505115718 | 57 | 288 | 1.0 | 3.0 | 0.00 | 0.10 | 0.09 | 95 | 1018.5 |
| 20260505115612 | 57 | 284 | 1.0 | 3.0 | 0.00 | 0.10 | 0.09 | 95 | 1018.5 |
| 20260505115221 | 57 | 284 | 1.0 | 3.0 | 0.00 | 0.10 | 0.09 | 95 | 1018.1 |
| 20260505115218 | 57 | 284 | 1.0 | 3.0 | 0.00 | 0.10 | 0.09 | 95 | 1018.5 |
| 20260505114718 | 57 | 284 | 1.0 | 3.0 | 0.00 | 0.10 | 0.09 | 95 | 1018.1 |
| 20260505114502 | 57 | 275 | 0.0 | 2.0 | 0.00 | 0.10 | 0.09 | 95 | 1018.5 |
| 20260505114223 | 57 | 275 | 0.0 | 2.0 | 0.00 | 0.10 | 0.09 | 95 | 1018.5 |
| 20260505114109 | 57 | 47 | 0.0 | 2.0 | 0.00 | 0.10 | 0.09 | 95 | 1018.1 |
| 20260505113718 | 57 | 47 | 0.0 | 2.0 | 0.00 | 0.10 | 0.09 | 95 | 1018.1 |
| 20260505113440 | 57 | 47 | 1.0 | 2.0 | 0.00 | 0.10 | 0.09 | 95 | 1018.1 |
| 20260505113218 | 57 | 47 | 1.0 | 2.0 | 0.00 | 0.10 | 0.09 | 95 | 1018.1 |
| 20260505113037 | 57 | 46 | 0.0 | 2.0 | 0.00 | 0.10 | 0.09 | 94 | 1018.1 |
| 20260505112718 | 57 | 46 | 0.0 | 2.0 | 0.00 | 0.10 | 0.09 | 94 | 1018.1 |
| 20260505112539 | 57 | 51 | 1.0 | 2.0 | 0.00 | 0.10 | 0.09 | 94 | 1018.1 |
| 20260505112220 | 57 | 52 | 0.0 | 2.0 | 0.00 | 0.10 | 0.09 | 94 | 1018.5 |
| 20260505111718 | 57 | 52 | 0.0 | 2.0 | 0.00 | 0.10 | 0.09 | 94 | 1018.5 |
| 20260505111521 | 57 | 336 | 0.0 | 2.0 | 0.00 | 0.10 | 0.09 | 94 | 1018.8 |
| 20260505111218 | 57 | 336 | 0.0 | 2.0 | 0.00 | 0.10 | 0.09 | 94 | 1018.8 |
| 20260505111032 | 57 | 357 | 0.0 | 2.0 | 0.00 | 0.10 | 0.09 | 95 | 1018.8 |
| 20260505110718 | 57 | 357 | 0.0 | 2.0 | 0.00 | 0.10 | 0.09 | 95 | 1018.8 |
| 20260505110424 | 57 | 302 | 1.0 | 3.0 | 0.00 | 0.10 | 0.09 | 94 | 1018.8 |
| 20260505110220 | 57 | 302 | 1.0 | 3.0 | 0.00 | 0.10 | 0.09 | 94 | 1018.8 |
| 20260505110157 | 57 | 285 | 1.0 | 3.0 | 0.00 | 0.10 | 0.09 | 94 | 1018.8 |
| 20260505102219 | 57 | 51 | 2.0 | 5.0 | 0.00 | 0.10 | 0.09 | 94 | 1018.8 |
| 20260505102147 | 57 | 45 | 1.0 | 5.0 | 0.00 | 0.10 | 0.09 | 94 | 1018.8 |
| 20260505101817 | 57 | 45 | 1.0 | 5.0 | 0.00 | 0.10 | 0.09 | 94 | 1018.8 |
| 20260505101719 | 57 | 45 | 1.0 | 5.0 | 0.00 | 0.10 | 0.09 | 94 | 1018.8 |
| 20260505101636 | 57 | 349 | 0.0 | 2.0 | 0.00 | 0.10 | 0.09 | 94 | 1019.6 |
| 20260505101219 | 57 | 349 | 0.0 | 2.0 | 0.00 | 0.10 | 0.09 | 94 | 1019.6 |
| 20260505101110 | 57 | 349 | 0.0 | 2.0 | 0.00 | 0.10 | 0.09 | 94 | 1019.6 |
| 20260505100719 | 57 | 349 | 0.0 | 2.0 | 0.00 | 0.10 | 0.09 | 94 | 1019.6 |
| 20260505100515 | 57 | 350 | 0.0 | 2.0 | 0.00 | 0.10 | 0.09 | 93 | 1019.6 |
| 20260505100219 | 57 | 350 | 0.0 | 2.0 | 0.00 | 0.10 | 0.09 | 93 | 1019.6 |
| 20260505100010 | 57 | 0 | 0.0 | 0.0 | 0.00 | 0.10 | 0.09 | 93 | 1019.6 |
| 20260505095719 | 57 | 0 | 0.0 | 0.0 | 0.00 | 0.10 | 0.09 | 93 | 1019.6 |
| 20260505095637 | 57 | 93 | 0.0 | 2.0 | 0.00 | 0.10 | 0.09 | 93 | 1019.6 |
| 20260505095220 | 57 | 111 | 1.0 | 3.0 | 0.00 | 0.10 | 0.09 | 93 | 1019.6 |
| 20260505094719 | 57 | 111 | 1.0 | 3.0 | 0.00 | 0.10 | 0.09 | 93 | 1019.6 |
| 20260505094459 | 57 | 97 | 2.0 | 3.0 | 0.00 | 0.10 | 0.09 | 93 | 1019.6 |
| 20260505094224 | 56 | 94 | 1.0 | 3.0 | 0.00 | 0.10 | 0.09 | 92 | 1020.0 |
| 20260505094220 | 57 | 97 | 2.0 | 3.0 | 0.00 | 0.10 | 0.09 | 93 | 1019.6 |
| 20260505093719 | 56 | 94 | 1.0 | 3.0 | 0.00 | 0.10 | 0.09 | 92 | 1020.0 |
| 20260505093424 | 56 | 100 | 2.0 | 6.0 | 0.00 | 0.10 | 0.09 | 92 | 1020.3 |
| 20260505093219 | 56 | 100 | 2.0 | 6.0 | 0.00 | 0.10 | 0.09 | 92 | 1020.3 |
| 20260505093046 | 56 | 105 | 3.0 | 6.0 | 0.00 | 0.10 | 0.09 | 92 | 1020.0 |
| 20260505092719 | 56 | 105 | 3.0 | 6.0 | 0.00 | 0.10 | 0.09 | 92 | 1020.0 |
| 20260505092517 | 56 | 123 | 2.0 | 6.0 | 0.00 | 0.10 | 0.09 | 93 | 1020.3 |
| 20260505092219 | 56 | 123 | 2.0 | 6.0 | 0.00 | 0.10 | 0.09 | 93 | 1020.3 |
| 20260505092152 | 57 | 89 | 2.0 | 6.0 | 0.00 | 0.10 | 0.09 | 93 | 1020.7 |
| 20260505091720 | 57 | 89 | 2.0 | 6.0 | 0.00 | 0.10 | 0.09 | 93 | 1020.7 |
| 20260505091422 | 57 | 76 | 3.0 | 6.0 | 0.00 | 0.10 | 0.09 | 93 | 1021.1 |
| 20260505091219 | 57 | 76 | 3.0 | 6.0 | 0.00 | 0.10 | 0.09 | 93 | 1021.1 |
| 20260505091100 | 57 | 96 | 3.0 | 6.0 | 0.00 | 0.10 | 0.09 | 93 | 1021.1 |
| 20260505090719 | 57 | 96 | 3.0 | 6.0 | 0.00 | 0.10 | 0.09 | 93 | 1021.1 |
| 20260505090507 | 57 | 128 | 2.0 | 6.0 | 0.00 | 0.10 | 0.09 | 93 | 1021.1 |
| 20260505090219 | 57 | 128 | 2.0 | 6.0 | 0.00 | 0.10 | 0.09 | 93 | 1021.1 |
| 20260505090018 | 57 | 135 | 2.0 | 5.0 | 0.00 | 0.10 | 0.09 | 93 | 1021.5 |
| 20260505085719 | 57 | 135 | 2.0 | 5.0 | 0.00 | 0.10 | 0.09 | 93 | 1021.5 |
| 20260505085527 | 57 | 129 | 3.0 | 5.0 | 0.00 | 0.10 | 0.09 | 93 | 1021.5 |
| 20260505085219 | 57 | 129 | 3.0 | 5.0 | 0.00 | 0.10 | 0.09 | 93 | 1021.5 |
| 20260505085112 | 57 | 126 | 3.0 | 5.0 | 0.00 | 0.10 | 0.09 | 93 | 1021.8 |
| 20260505084719 | 57 | 126 | 3.0 | 5.0 | 0.00 | 0.10 | 0.09 | 93 | 1021.8 |
| 20260505084224 | 57 | 153 | 1.0 | 2.0 | 0.00 | 0.10 | 0.09 | 92 | 1022.2 |
| 20260505084114 | 57 | 153 | 1.0 | 2.0 | 0.00 | 0.10 | 0.09 | 92 | 1022.2 |
| 20260505083719 | 57 | 153 | 1.0 | 2.0 | 0.00 | 0.10 | 0.09 | 92 | 1022.2 |
| 20260505083439 | 57 | 153 | 1.0 | 2.0 | 0.00 | 0.10 | 0.09 | 92 | 1022.2 |
| 20260505083219 | 57 | 153 | 1.0 | 2.0 | 0.00 | 0.10 | 0.09 | 92 | 1022.2 |
| 20260505082517 | 57 | 177 | 2.0 | 4.0 | 0.00 | 0.10 | 0.09 | 92 | 1022.6 |
| 20260505082219 | 57 | 177 | 2.0 | 4.0 | 0.00 | 0.10 | 0.09 | 92 | 1022.6 |
| 20260505082148 | 57 | 180 | 2.0 | 3.0 | 0.00 | 0.10 | 0.09 | 92 | 1022.6 |
| 20260505081719 | 57 | 180 | 2.0 | 3.0 | 0.00 | 0.10 | 0.09 | 92 | 1022.6 |
| 20260505081530 | 57 | 152 | 1.0 | 2.0 | 0.00 | 0.10 | 0.09 | 92 | 1022.6 |
| 20260505081219 | 57 | 152 | 1.0 | 2.0 | 0.00 | 0.10 | 0.09 | 92 | 1022.6 |
| 20260505080954 | 59 | 218 | 3.0 | 4.0 | 0.00 | 0.01 | 0.00 | 81 | 1022.9 |
| 20260505080719 | 59 | 218 | 3.0 | 4.0 | 0.00 | 0.01 | 0.00 | 81 | 1022.9 |
| 20260505080504 | 59 | 218 | 3.0 | 4.0 | 0.00 | 0.01 | 0.00 | 81 | 1022.9 |
| 20260505080237 | 59 | 218 | 3.0 | 4.0 | 0.00 | 0.01 | 0.00 | 81 | 1022.9 |
| 20260505080153 | 59 | 218 | 3.0 | 4.0 | 0.00 | 0.01 | 0.00 | 81 | 1022.9 |
| 20260505075719 | 59 | 218 | 3.0 | 4.0 | 0.00 | 0.01 | 0.00 | 81 | 1022.9 |
| 20260505075439 | 59 | 218 | 3.0 | 4.0 | 0.00 | 0.01 | 0.00 | 81 | 1022.9 |
| 20260505075219 | 59 | 218 | 3.0 | 4.0 | 0.00 | 0.01 | 0.00 | 81 | 1022.9 |
| 20260505075014 | 59 | 218 | 3.0 | 4.0 | 0.00 | 0.01 | 0.00 | 81 | 1022.9 |
| 20260505074719 | 59 | 218 | 3.0 | 4.0 | 0.00 | 0.01 | 0.00 | 81 | 1022.9 |
| 20260505074413 | 59 | 218 | 3.0 | 4.0 | 0.00 | 0.01 | 0.00 | 81 | 1022.9 |
| 20260505074220 | 59 | 218 | 3.0 | 4.0 | 0.00 | 0.01 | 0.00 | 81 | 1022.9 |
| 20260505073719 | 59 | 218 | 3.0 | 4.0 | 0.00 | 0.01 | 0.00 | 81 | 1022.9 |
| 20260505073418 | 59 | 218 | 3.0 | 4.0 | 0.00 | 0.01 | 0.00 | 81 | 1022.9 |
| 20260505073220 | 59 | 218 | 3.0 | 4.0 | 0.00 | 0.01 | 0.00 | 81 | 1022.9 |
| 20260505073020 | 59 | 218 | 3.0 | 4.0 | 0.00 | 0.01 | 0.00 | 81 | 1022.9 |
| 20260505072720 | 59 | 218 | 3.0 | 4.0 | 0.00 | 0.01 | 0.00 | 81 | 1022.9 |
| 20260505072520 | 59 | 218 | 3.0 | 4.0 | 0.00 | 0.01 | 0.00 | 81 | 1022.9 |
| 20260505072222 | 59 | 218 | 3.0 | 4.0 | 0.00 | 0.01 | 0.00 | 81 | 1022.9 |
| 20260505072059 | 59 | 218 | 3.0 | 4.0 | 0.00 | 0.01 | 0.00 | 81 | 1022.9 |
| 20260505071721 | 59 | 218 | 3.0 | 4.0 | 0.00 | 0.01 | 0.00 | 81 | 1022.9 |
| 20260505071518 | 59 | 218 | 3.0 | 4.0 | 0.00 | 0.01 | 0.00 | 81 | 1022.9 |
| 20260505071219 | 59 | 218 | 3.0 | 4.0 | 0.00 | 0.01 | 0.00 | 81 | 1022.9 |
| 20260505071019 | 59 | 218 | 3.0 | 4.0 | 0.00 | 0.01 | 0.00 | 81 | 1022.9 |
| 20260505070719 | 59 | 218 | 3.0 | 4.0 | 0.00 | 0.01 | 0.00 | 81 | 1022.9 |
| 20260505070444 | 59 | 221 | 3.0 | 9.0 | 0.00 | 0.01 | 0.00 | 81 | 1022.6 |
| 20260505070219 | 59 | 221 | 3.0 | 9.0 | 0.00 | 0.01 | 0.00 | 81 | 1022.6 |
| 20260505070002 | 59 | 247 | 3.0 | 9.0 | 0.00 | 0.01 | 0.01 | 81 | 1022.6 |
| 20260505065719 | 59 | 247 | 3.0 | 9.0 | 0.00 | 0.01 | 0.01 | 81 | 1022.6 |
| 20260505065436 | 60 | 279 | 3.0 | 4.0 | 0.00 | 0.01 | 0.01 | 82 | 1022.6 |
| 20260505065219 | 60 | 279 | 3.0 | 4.0 | 0.00 | 0.01 | 0.01 | 82 | 1022.6 |
| 20260505064719 | 60 | 279 | 3.0 | 4.0 | 0.00 | 0.01 | 0.01 | 82 | 1022.6 |
| 20260505064415 | 60 | 279 | 3.0 | 4.0 | 0.01 | 0.01 | 0.01 | 82 | 1022.6 |
| 20260505064222 | 60 | 279 | 3.0 | 4.0 | 0.01 | 0.01 | 0.01 | 82 | 1022.6 |
| 20260505064116 | 63 | 5 | 1.0 | 2.0 | 0.00 | 0.00 | 0.00 | 55 | 1022.2 |
| 20260505063719 | 63 | 5 | 1.0 | 2.0 | 0.00 | 0.00 | 0.00 | 55 | 1022.2 |
| 20260505063219 | 63 | 5 | 1.0 | 2.0 | 0.00 | 0.00 | 0.00 | 55 | 1022.2 |
| 20260505063129 | 63 | 5 | 1.0 | 2.0 | 0.00 | 0.00 | 0.00 | 55 | 1022.2 |
| 20260505062719 | 63 | 5 | 1.0 | 2.0 | 0.00 | 0.00 | 0.00 | 55 | 1022.2 |
| 20260505062510 | 63 | 5 | 1.0 | 2.0 | 0.00 | 0.00 | 0.00 | 55 | 1022.2 |
| 20260505062219 | 63 | 5 | 1.0 | 2.0 | 0.00 | 0.00 | 0.00 | 55 | 1022.2 |
| 20260505062115 | 63 | 5 | 1.0 | 2.0 | 0.00 | 0.00 | 0.00 | 55 | 1022.2 |
| 20260505061719 | 63 | 5 | 1.0 | 2.0 | 0.00 | 0.00 | 0.00 | 55 | 1022.2 |
| 20260505061551 | 63 | 5 | 1.0 | 2.0 | 0.00 | 0.00 | 0.00 | 55 | 1022.2 |
| 20260505061219 | 63 | 5 | 1.0 | 2.0 | 0.00 | 0.00 | 0.00 | 55 | 1022.2 |
| 20260505061026 | 63 | 5 | 1.0 | 2.0 | 0.00 | 0.00 | 0.00 | 55 | 1022.2 |
| 20260505060718 | 63 | 5 | 1.0 | 2.0 | 0.00 | 0.00 | 0.00 | 55 | 1022.2 |
| 20260505060518 | 63 | 5 | 1.0 | 2.0 | 0.00 | 0.00 | 0.00 | 55 | 1022.2 |
| 20260505060219 | 63 | 5 | 1.0 | 2.0 | 0.00 | 0.00 | 0.00 | 55 | 1022.2 |
| 20260505055954 | 63 | 5 | 1.0 | 2.0 | 0.00 | 0.00 | 0.00 | 55 | 1022.2 |
| 20260505055720 | 63 | 5 | 1.0 | 2.0 | 0.00 | 0.00 | 0.00 | 55 | 1022.2 |
| 20260505055544 | 63 | 5 | 1.0 | 2.0 | 0.00 | 0.00 | 0.00 | 55 | 1022.2 |
| 20260505055218 | 63 | 5 | 1.0 | 2.0 | 0.00 | 0.00 | 0.00 | 55 | 1022.2 |
| 20260505055034 | 63 | 5 | 1.0 | 2.0 | 0.00 | 0.00 | 0.00 | 55 | 1022.2 |
| 20260505054719 | 63 | 5 | 1.0 | 2.0 | 0.00 | 0.00 | 0.00 | 55 | 1022.2 |
| 20260505054241 | 63 | 343 | 1.0 | 2.0 | 0.00 | 0.00 | 0.00 | 55 | 1022.2 |
| 20260505054226 | 63 | 5 | 1.0 | 2.0 | 0.00 | 0.00 | 0.00 | 55 | 1022.2 |
| 20260505053718 | 63 | 343 | 1.0 | 2.0 | 0.00 | 0.00 | 0.00 | 55 | 1022.2 |
| 20260505053439 | 63 | 332 | 1.0 | 2.0 | 0.00 | 0.00 | 0.00 | 55 | 1022.2 |
| 20260505053218 | 63 | 332 | 1.0 | 2.0 | 0.00 | 0.00 | 0.00 | 55 | 1022.2 |
| 20260505053004 | 63 | 349 | 1.0 | 2.0 | 0.00 | 0.00 | 0.00 | 54 | 1021.8 |
| 20260505052719 | 63 | 349 | 1.0 | 2.0 | 0.00 | 0.00 | 0.00 | 54 | 1021.8 |
| 20260505052536 | 63 | 349 | 1.0 | 2.0 | 0.00 | 0.00 | 0.00 | 51 | 1022.2 |
| 20260505052219 | 63 | 349 | 1.0 | 2.0 | 0.00 | 0.00 | 0.00 | 51 | 1022.2 |
| 20260505052037 | 63 | 348 | 1.0 | 2.0 | 0.00 | 0.00 | 0.00 | 51 | 1022.6 |
| 20260505051719 | 63 | 348 | 1.0 | 2.0 | 0.00 | 0.00 | 0.00 | 51 | 1022.6 |
| 20260505051458 | 63 | 0 | 0.0 | 0.0 | 0.00 | 0.00 | 0.00 | 50 | 1022.6 |
| 20260505051219 | 63 | 0 | 0.0 | 0.0 | 0.00 | 0.00 | 0.00 | 50 | 1022.6 |
| 20260505051129 | 63 | 0 | 0.0 | 0.0 | 0.00 | 0.00 | 0.00 | 50 | 1022.6 |
| 20260505050718 | 63 | 0 | 0.0 | 0.0 | 0.00 | 0.00 | 0.00 | 50 | 1022.6 |
| 20260505050454 | 63 | 74 | 0.0 | 2.0 | 0.00 | 0.00 | 0.00 | 50 | 1022.6 |
| 20260505050219 | 63 | 74 | 0.0 | 2.0 | 0.00 | 0.00 | 0.00 | 50 | 1022.6 |
| 20260505041718 | 62 | 324 | 1.0 | 3.0 | 0.00 | 0.00 | 0.00 | 53 | 1021.8 |
| 20260505041543 | 62 | 329 | 1.0 | 4.0 | 0.00 | 0.00 | 0.00 | 53 | 1021.8 |
| 20260505041218 | 62 | 329 | 1.0 | 4.0 | 0.00 | 0.00 | 0.00 | 53 | 1021.8 |
| 20260505041041 | 63 | 21 | 1.0 | 4.0 | 0.00 | 0.00 | 0.00 | 52 | 1021.8 |
| 20260505040718 | 63 | 21 | 1.0 | 4.0 | 0.00 | 0.00 | 0.00 | 52 | 1021.8 |
| 20260505040519 | 63 | 309 | 1.0 | 4.0 | 0.00 | 0.00 | 0.00 | 52 | 1022.2 |
| 20260505040218 | 63 | 309 | 1.0 | 4.0 | 0.00 | 0.00 | 0.00 | 52 | 1022.2 |
| 20260505035936 | 65 | 300 | 2.0 | 4.0 | 0.00 | 0.00 | 0.00 | 47 | 1021.8 |
| 20260505035718 | 65 | 300 | 2.0 | 4.0 | 0.00 | 0.00 | 0.00 | 47 | 1021.8 |
| 20260505035514 | 64 | 49 | 3.0 | 4.0 | 0.00 | 0.00 | 0.00 | 49 | 1021.8 |
| 20260505035218 | 64 | 49 | 3.0 | 4.0 | 0.00 | 0.00 | 0.00 | 49 | 1021.8 |
| 20260505035146 | 62 | 48 | 3.0 | 6.0 | 0.00 | 0.00 | 0.00 | 52 | 1021.8 |
| 20260505034718 | 62 | 48 | 3.0 | 6.0 | 0.00 | 0.00 | 0.00 | 52 | 1021.8 |
| 20260505034449 | 62 | 34 | 3.0 | 6.0 | 0.00 | 0.00 | 0.00 | 52 | 1021.5 |
| 20260505034221 | 62 | 34 | 3.0 | 6.0 | 0.00 | 0.00 | 0.00 | 52 | 1021.5 |
| 20260505034153 | 63 | 37 | 2.0 | 6.0 | 0.00 | 0.00 | 0.00 | 48 | 1021.5 |
| 20260505033720 | 63 | 37 | 2.0 | 6.0 | 0.00 | 0.00 | 0.00 | 48 | 1021.5 |
| 20260505033441 | 63 | 62 | 2.0 | 6.0 | 0.00 | 0.00 | 0.00 | 48 | 1021.5 |
| 20260505033218 | 63 | 62 | 2.0 | 6.0 | 0.00 | 0.00 | 0.00 | 48 | 1021.5 |
| 20260505033144 | 64 | 78 | 2.0 | 4.0 | 0.00 | 0.00 | 0.00 | 47 | 1021.5 |
| 20260505032719 | 64 | 78 | 2.0 | 4.0 | 0.00 | 0.00 | 0.00 | 47 | 1021.5 |
| 20260505032633 | 63 | 86 | 2.0 | 4.0 | 0.00 | 0.00 | 0.00 | 47 | 1021.1 |
| 20260505032218 | 63 | 86 | 2.0 | 4.0 | 0.00 | 0.00 | 0.00 | 47 | 1021.1 |
| 20260505032151 | 63 | 90 | 2.0 | 4.0 | 0.00 | 0.00 | 0.00 | 48 | 1021.5 |
| 20260505031718 | 63 | 90 | 2.0 | 4.0 | 0.00 | 0.00 | 0.00 | 48 | 1021.5 |
| 20260505031504 | 63 | 102 | 1.0 | 2.0 | 0.00 | 0.00 | 0.00 | 48 | 1021.5 |
| 20260505031218 | 63 | 102 | 1.0 | 2.0 | 0.00 | 0.00 | 0.00 | 48 | 1021.5 |
| 20260505031140 | 63 | 108 | 1.0 | 2.0 | 0.00 | 0.00 | 0.00 | 49 | 1021.5 |
| 20260505030718 | 63 | 108 | 1.0 | 2.0 | 0.00 | 0.00 | 0.00 | 49 | 1021.5 |
| 20260505030628 | 63 | 74 | 1.0 | 3.0 | 0.00 | 0.00 | 0.00 | 49 | 1021.8 |
| 20260505030218 | 63 | 74 | 1.0 | 3.0 | 0.00 | 0.00 | 0.00 | 49 | 1021.8 |
| 20260505025218 | 63 | 54 | 2.0 | 3.0 | 0.00 | 0.00 | 0.00 | 49 | 1021.8 |
| 20260505024718 | 63 | 36 | 2.0 | 3.0 | 0.00 | 0.00 | 0.00 | 49 | 1022.2 |